Index of /shared/routes/035c14630e1d1aad38ae37862672682f

[ICO]NameLast modifiedSizeDescription

[PARENTDIR]Parent Directory  -  
[   ]140929-1340-Untitled.kmz2014-09-29 06:00 24K 
[   ]140929-1340-Untitled.kmz.php2014-09-29 06:00 650  
[IMG]140929-1340-Untitled.kmz.png2014-09-29 06:00 0  
[   ]140930-1447-Untitled.kmz2014-09-30 07:20 23K 
[   ]140930-1447-Untitled.kmz.php2014-09-30 07:20 621  
[IMG]140930-1447-Untitled.kmz.png2014-09-30 07:20 0  
[   ]141003-1254-cycle-to-work.kmz2014-10-03 04:58 17K 
[   ]141003-1254-cycle-to-work.kmz.php2014-10-03 04:58 631  
[IMG]141003-1254-cycle-to-work.kmz.png2014-10-03 04:58 0  
[   ]141003-1757-cycle-to-work.kmz2014-10-03 09:37 12K 
[   ]141003-1757-cycle-to-work.kmz.php2014-10-03 09:37 657  
[IMG]141003-1757-cycle-to-work.kmz.png2014-10-03 09:37 0  
[   ]141008-0905-Untitled.kmz2014-10-08 01:42 23K 
[   ]141008-0905-Untitled.kmz.php2014-10-08 01:42 617  
[IMG]141008-0905-Untitled.kmz.png2014-10-08 01:42 0  
[   ]141016-1100-cycle-to-work.kmz2014-10-16 03:18 16K 
[   ]141016-1100-cycle-to-work.kmz.php2014-10-16 03:18 650  
[IMG]141016-1100-cycle-to-work.kmz.png2014-10-16 03:18 0  
[   ]141017-1354-cycle-to-work.kmz2014-10-17 05:59 17K 
[   ]141017-1354-cycle-to-work.kmz.php2014-10-17 05:59 634  
[IMG]141017-1354-cycle-to-work.kmz.png2014-10-17 05:59 0  
[   ]141017-1843-cycle-to-work.kmz2014-10-17 10:23 12K 
[   ]141017-1843-cycle-to-work.kmz.php2014-10-17 10:23 638  
[IMG]141017-1843-cycle-to-work.kmz.png2014-10-17 10:23 0  
[   ]141018-1211-Untitled.kmz2014-10-18 03:51 7.4K 
[   ]141018-1211-Untitled.kmz.php2014-10-18 03:51 632  
[IMG]141018-1211-Untitled.kmz.png2014-10-18 03:51 0  
[   ]141020-1335-Untitled.kmz2014-10-20 05:41 14K 
[   ]141020-1335-Untitled.kmz.php2014-10-20 05:41 623  
[IMG]141020-1335-Untitled.kmz.png2014-10-20 05:41 0  
[   ]141025-1654-Untitled.kmz2014-10-25 09:22 19K 
[   ]141025-1654-Untitled.kmz.php2014-10-25 09:22 640  
[IMG]141025-1654-Untitled.kmz.png2014-10-25 09:22 0  
[   ]141110-1446-Untitled.kmz2014-11-10 06:59 18K 
[   ]141110-1446-Untitled.kmz.php2014-11-10 06:59 685  
[IMG]141110-1446-Untitled.kmz.png2014-11-10 06:59 0  
[   ]141110-1616-Untitled.kmz2014-11-10 09:14 19K 
[   ]141110-1616-Untitled.kmz.php2014-11-10 09:14 663  
[IMG]141110-1616-Untitled.kmz.png2014-11-10 09:14 0  
[   ]141114-1426-Untitled.kmz2014-11-14 09:01 35K 
[   ]141114-1426-Untitled.kmz.php2014-11-14 09:01 678  
[IMG]141114-1426-Untitled.kmz.png2014-11-14 09:01 0  
[   ]141121-1053-Untitled.kmz2014-11-21 06:07 38K 
[   ]141121-1053-Untitled.kmz.php2014-11-21 06:07 656  
[IMG]141121-1053-Untitled.kmz.png2014-11-21 06:07 0  
[   ]141121-1406-Untitled.kmz2014-11-21 06:07 9.6K 
[   ]141121-1406-Untitled.kmz.php2014-11-21 06:07 657  
[IMG]141121-1406-Untitled.kmz.png2014-11-21 06:07 0  
[   ]141202-1337-Untitled.kmz2014-12-02 06:04 17K 
[   ]141202-1337-Untitled.kmz.php2014-12-02 06:04 659  
[IMG]141202-1337-Untitled.kmz.png2014-12-02 06:04 0  
[   ]141205-1322-Untitled.kmz2014-12-05 09:11 55K 
[   ]141205-1322-Untitled.kmz.php2014-12-05 09:11 670  
[IMG]141205-1322-Untitled.kmz.png2014-12-05 09:11 0  
[   ]150108-1430-Untitled.kmz2015-01-08 08:16 33K 
[   ]150108-1430-Untitled.kmz.php2015-01-08 08:16 636  
[IMG]150108-1430-Untitled.kmz.png2015-01-08 08:16 0  
[   ]150109-1443-Untitled.kmz2015-01-09 09:27 55K 
[   ]150109-1443-Untitled.kmz.php2015-01-09 09:27 636  
[IMG]150109-1443-Untitled.kmz.png2015-01-09 09:27 0  

Apache/2.4.29 (Ubuntu) Server at kineticgps.com Port 80